Location: Alto Pass Reservoir
(37.5801°N, 89.3084°W)
Time: 20:36:57
(UTC+00:00)

Cosmos 1570 Rocket - Pass Details

Date: 08 December 2021
Orbit: 763 x 788 km, 74.1° (Epoch: 16 January)

Event Time Altitude Azimuth Distance (km) Brightness Sun altitude
Rises 23:20:23 0° 202° (SSW) 3,223 8.0 -8.3°
Reaches altitude 10° 23:22:46 10° 204° (SSW) 2,298 7.2 -8.7°
Maximum altitude 23:27:58 73° 288° (WNW) 801 4.3 -9.7°
Drops below altitude 10° 23:33:11 10° 14° (NNE) 2,304 6.1 -10.6°
Sets 23:35:34 0° 16° (NNE) 3,233 6.9 -11.1°
